User: anonymous   Login
Location: Allos
(44.2333°N, 6.6333°E)
Time: 18:44:15
(UTC+00:00)
Language:

LEMUR 2 KOBYSZCZE - Orbit

View from above orbital plane
View from above orbital plane
View from above satellite
View from above satellite

Ground track
Ground track

The orbit data is extracted from the following two-line orbital elements,

1 43732U 18096P   21172.47948795  .00003079  00000-0  10299-3 0  9992
2 43732  97.3929 252.3502 0017117 254.3208 105.6145 15.31624283142880
Epoch (UTC): 21 June 2021 11:30:27
Eccentricity: 0.0017117
inclination: 97.3929°
perigee height: 459 km
apogee height: 482 km
right ascension of ascending node: 252.3502°
argument of perigee: 254.3208°
revolutions per day: 15.31624283
mean anomaly at epoch: 105.6145°
orbit number at epoch: 14288

The dashed part of the orbit path shows where the satellite is in the earth's shadow,  

DLR